Погода в Талсе

США     36°07′17″N   95°56′24″W
темп.,
°C
ветер,
м/с
пор.,
м/с
влажн.,
%
обл.,
%
осадки,
мм/ч
давл.,
гПа
погр.,
м
15 мая, сб
сб1501:00+14ююв5148783 0.1 1019320
04:00+14ююв41390100 0.8 1019366
07:00+14ю31394100 3.5 1019460
10:00+16ю51288100 4.1 1019546
13:00+21ююз4886100 6.1 1018918
16:00+23ююз6980100 0.9 1016965
19:00+22ю5108193 0.9 1014666
22:00+19ю412928 0.0 1015356
16 мая, вс
вс1601:00+17ююв4129598 0.6 1016316
04:00+17ю4149568 0.1 1015461
07:00+17ююв41397100 0.1 1016440
10:00+20ю61287100 0.0 1016690
13:00+22ю71177100 0.3 10151236
16:00+18ююв81495100 5.6 10131030
19:00+17ююв71496100 8.7 1013815
22:00+17ю5159457 1.0 1013645
17 мая, пн
пн1701:00+18ю61496100 2.4 1012703
04:00+17ю51397100 2.4 1011885
07:00+18ююз41097100 4.3 1011517
10:00+20ю3691100 0.4 1012600
13:00+21юв4794100 11.5 1012528
16:00+21ююв5893100 0.2 1011535
19:00+21юв479491 0.3 1010447
22:00+20юв3896100 0.4 1011289
18 мая, вт
вт1801:00+19ююв41097100 2.6 1010281
04:00+19ю2699100 5.6 1009303
07:00+19ююв71397100 10.9 1010522
10:00+19ююв101795100 4.5 1012788
13:00+19ююв91695100 12.3 1013745
16:00+19вюв71297100 7.2 1011683
19:00+20юв61191100 7.2 1010698
22:00+19юв71197100 1.1 1010518
19 мая, ср
ср1901:00+15ююз1292100 7.9 101168
04:00+15св0096100 0.0 101012
07:00+15юв3897100 0.0 1013289
10:00+18ююв5890100 0.4 1014668
13:00+24ююв686912 0.5 10141155
16:00+26ююв6963100 0.0 10121706
19:00+22ююз61083100 0.3 1013566
22:00+18ю3109474 0.5 1015285